Orbital Elements at Epoch 2459200.5 (2020-Dec-17.0) TDB
Reference: JPL 20 (heliocentric ecliptic J2000)
Element | Value | Uncertainty (1-sigma) | Units |
e | .2071933320237624 | 2.9255e-08 | |
a | 2.36051471933027 | 7.851e-09 | au |
q | 1.871431809341095 | 6.7569e-08 | au |
i | 4.37526643736279 | 3.1931e-06 | deg |
node | 134.217265623564 | 5.7071e-05 | deg |
peri | 181.8564440851505 | 5.8088e-05 | deg |
M | 82.36207482958996 | 1.1422e-05 | deg |
tp | 2458897.436751504666 (2020-Feb-17.93675150) | 4.1298e-05 | TDB |
period | 1324.672425798617 3.63 | 6.6087e-06 1.809e-08 | d yr |
n | .2717653006047616 | 1.3558e-09 | deg/d |
Q | 2.849597629319445 | 9.4776e-09 | au |
|
| | Orbit Determination Parameters
Additional Information
|